Location: B?ogocice
(50.2413°N, 20.2361°E)
Time: 21:45:15
(UTC+00:00)

CZ-4C R/B - Visible Passes

Search period start: 13 September 2024 00:00
Search period end: 23 September 2024 00:00
Orbit: 522 x 1469 km, 63.4° (Epoch: 13 September)

Date Brightness Start Highest point End Pass type
(mag) Time Alt. Az. Time Alt. Az. Time Alt. Az.
13 Sep 2.2 01:18:50 57° NW 01:19:10 58° NW 01:25:05 10° NE visible
13 Sep 3.9 03:04:20 10° WNW 03:08:51 26° N 03:14:20 10° NE visible
14 Sep 3.3 00:04:36 36° ENE 00:04:36 36° ENE 00:08:12 10° NE visible
14 Sep 3.0 01:49:40 29° WNW 01:51:22 37° NNW 01:57:07 10° NE visible
14 Sep 4.1 03:36:52 10° NW 03:41:31 25° N 03:47:06 10° NE visible
14 Sep 4.6 22:50:21 11° ENE 22:50:21 11° ENE 22:50:45 10° ENE visible
15 Sep 2.6 00:35:24 55° NNE 00:35:24 55° NNE 00:40:16 10° NE visible
15 Sep 3.7 02:20:28 16° WNW 02:23:51 28° NNW 02:29:22 10° NE visible
15 Sep 4.1 23:21:08 22° ENE 23:21:08 22° ENE 23:23:19 10° NE visible
16 Sep 2.8 01:06:11 41° NW 01:06:27 42° NNW 01:12:16 10° NE visible
16 Sep 4.1 02:51:53 10° WNW 02:56:28 25° N 03:01:59 10° NE visible
16 Sep 3.5 23:51:54 35° NE 23:51:54 35° NE 23:55:26 10° NE visible
17 Sep 3.5 01:36:58 24° NW 01:38:50 30° NNW 01:44:25 10° NE visible
17 Sep 4.3 03:24:16 10° NW 03:29:08 26° N 03:35:00 10° ENE visible
17 Sep 4.6 22:37:36 13° ENE 22:37:36 13° ENE 22:38:23 10° NE visible
18 Sep 3.1 00:22:40 42° N 00:22:40 42° N 00:27:25 10° NE visible
18 Sep 4.0 02:07:43 14° NW 02:11:24 25° N 02:16:54 10° NE visible
18 Sep 4.1 23:08:21 23° NE 23:08:21 23° NE 23:10:34 10° NE visible
19 Sep 3.3 00:53:24 32° NNW 00:53:50 33° NNW 00:59:30 10° NE visible
19 Sep 4.3 02:39:19 10° NW 02:44:04 25° N 02:49:47 10° ENE visible
19 Sep 3.7 23:39:05 32° NNE 23:39:05 32° NNE 23:42:34 10° NE visible
20 Sep 3.8 01:24:07 21° NW 01:26:21 26° N 01:31:50 10° NE visible
20 Sep 4.3 03:11:30 10° NW 03:16:42 28° NNE 03:23:01 10° ENE visible
20 Sep 4.6 22:24:44 14° NE 22:24:44 14° NE 22:25:41 10° NE visible
21 Sep 3.5 00:09:48 34° N 00:09:48 34° N 00:14:35 10° NE visible
21 Sep 4.2 01:54:51 12° NW 01:58:58 25° N 02:04:35 10° NE visible
21 Sep 4.2 03:43:24 10° NW 03:49:13 35° NNE 03:56:21 10° E visible
21 Sep 4.2 22:55:27 22° NE 22:55:27 22° NE 22:57:42 10° NE visible
22 Sep 3.7 00:40:31 27° NNW 00:41:17 28° NNW 00:46:48 10° NE visible
22 Sep 4.3 02:26:36 10° NW 02:31:38 27° NNE 02:37:42 10° ENE visible
22 Sep 3.9 23:26:10 29° NNE 23:26:10 29° NNE 23:29:41 10° NE visible
